DAL223 KMCO-GOBD

Flight info

Callsign DAL223
Flight time 7h 14m
Altitude 37000
Route MZULO3 LENDS M203 SNAGY 2960N 2957N 2950N 2945N 2842N 2740N 2434N ULTEM UR976 LUMPO R976 LIGOV
Aircraft A339/H-SDE2E3GHIJ4J7M3P2RWXY/LB1D1

Departure

Time 2026-04-25 13:02
Airport Orlando International Airport (KMCO)

Arrival

Time 2026-04-25 20:17
Airport Blaise Diagne International Airport (GOBD)
Time Latitude Longitude Altitude Speed Heading
2026-04-25 11:39 28.42665 -81.30036 99 ft 0 kts 235°
2026-04-25 12:44 28.42665 -81.30035 99 ft 1 kts 235°
2026-04-25 12:44 28.42673 -81.30022 99 ft 2 kts 244°
2026-04-25 12:44 28.42682 -81.29990 99 ft 2 kts 257°
2026-04-25 12:45 28.42686 -81.29973 99 ft 2 kts 255°
2026-04-25 12:45 28.42690 -81.29956 99 ft 2 kts 255°
2026-04-25 12:45 28.42697 -81.29924 99 ft 2 kts 252°
2026-04-25 12:46 28.42703 -81.29909 99 ft 2 kts 233°
2026-04-25 12:46 28.42713 -81.29896 99 ft 2 kts 220°
2026-04-25 12:46 28.42726 -81.29887 99 ft 2 kts 205°
2026-04-25 12:46 28.42740 -81.29881 99 ft 2 kts 190°
2026-04-25 12:47 28.42753 -81.29881 99 ft 0 kts 178°
2026-04-25 12:47 28.42755 -81.29881 99 ft 0 kts 178°
2026-04-25 12:50 28.42750 -81.29880 99 ft 1 kts 178°
2026-04-25 12:50 28.42728 -81.29881 99 ft 4 kts 180°
2026-04-25 12:50 28.42694 -81.29881 99 ft 3 kts 181°
2026-04-25 12:51 28.42679 -81.29881 99 ft 1 kts 181°
2026-04-25 12:51 28.42675 -81.29881 99 ft 0 kts 181°
2026-04-25 12:56 28.42663 -81.29881 99 ft 5 kts 180°
2026-04-25 12:56 28.42608 -81.29856 99 ft 9 kts 128°
2026-04-25 12:56 28.42632 -81.29801 99 ft 10 kts 15°
2026-04-25 12:56 28.42708 -81.29797 99 ft 11 kts
2026-04-25 12:57 28.42789 -81.29797 99 ft 11 kts 359°
2026-04-25 12:57 28.42874 -81.29799 99 ft 12 kts 359°
2026-04-25 12:57 28.42963 -81.29800 99 ft 12 kts 360°
2026-04-25 12:57 28.43055 -81.29800 99 ft 13 kts
2026-04-25 12:58 28.43150 -81.29800 99 ft 13 kts 359°
2026-04-25 12:58 28.43231 -81.29802 99 ft 6 kts 359°
2026-04-25 12:58 28.43276 -81.29803 99 ft 5 kts 360°
2026-04-25 12:58 28.43292 -81.29803 99 ft 2 kts 359°
2026-04-25 12:59 28.43317 -81.29803 99 ft 4 kts 359°
2026-04-25 12:59 28.43331 -81.29803 99 ft 2 kts 359°
2026-04-25 12:59 28.43369 -81.29804 99 ft 8 kts 359°
2026-04-25 12:59 28.43451 -81.29803 99 ft 12 kts
2026-04-25 13:00 28.43527 -81.29778 99 ft 11 kts 62°
2026-04-25 13:00 28.43537 -81.29749 99 ft 11 kts 71°
2026-04-25 13:00 28.43544 -81.29607 99 ft 6 kts 118°
2026-04-25 13:00 28.43504 -81.29588 99 ft 6 kts 179°
2026-04-25 13:01 28.43494 -81.29588 99 ft 0 kts 178°
2026-04-25 13:01 28.43319 -81.29584 99 ft 58 kts 180°
2026-04-25 13:01 28.42680 -81.29577 99 ft 120 kts 179°
2026-04-25 13:02 28.41660 -81.29566 130 ft 167 kts 180°
2026-04-25 13:02 28.40451 -81.29573 537 ft 179 kts 181°
2026-04-25 13:02 28.39202 -81.29533 1166 ft 177 kts 178°
2026-04-25 13:02 28.38012 -81.29327 1839 ft 175 kts 155°
2026-04-25 13:03 28.36941 -81.28602 2211 ft 186 kts 145°
2026-04-25 13:03 28.35854 -81.27705 2492 ft 200 kts 144°
2026-04-25 13:03 28.34724 -81.26667 2770 ft 216 kts 137°
2026-04-25 13:03 28.33623 -81.25388 3066 ft 232 kts 133°
2026-04-25 13:04 28.32489 -81.24000 3362 ft 248 kts 133°
2026-04-25 13:04 28.31292 -81.22557 3739 ft 260 kts 133°
2026-04-25 13:04 28.30028 -81.21034 4231 ft 268 kts 133°
2026-04-25 13:04 28.28754 -81.19500 4861 ft 270 kts 133°
2026-04-25 13:05 28.27470 -81.17935 5476 ft 273 kts 129°
2026-04-25 13:05 28.26649 -81.16006 6008 ft 276 kts 96°
2026-04-25 13:05 28.26903 -81.13908 6554 ft 277 kts 63°
2026-04-25 13:05 28.28032 -81.12128 7122 ft 278 kts 48°
2026-04-25 13:06 28.29278 -81.10461 7725 ft 282 kts 49°
2026-04-25 13:06 28.30525 -81.08711 8314 ft 285 kts 50°
2026-04-25 13:06 28.31751 -81.06928 8894 ft 288 kts 51°
2026-04-25 13:06 28.32958 -81.05129 9453 ft 291 kts 51°
2026-04-25 13:07 28.34181 -81.03279 9988 ft 294 kts 51°
2026-04-25 13:07 28.35426 -81.01386 10399 ft 303 kts 51°
2026-04-25 13:07 28.36704 -80.99438 10650 ft 318 kts 51°
2026-04-25 13:07 28.38068 -80.97350 10919 ft 333 kts 51°
2026-04-25 13:08 28.39469 -80.95203 11278 ft 343 kts 51°
2026-04-25 13:08 28.40888 -80.93018 11851 ft 346 kts 51°
2026-04-25 13:08 28.42302 -80.90839 12462 ft 347 kts 51°
2026-04-25 13:08 28.43745 -80.88618 13033 ft 350 kts 51°
2026-04-25 13:09 28.45198 -80.86384 13585 ft 354 kts 51°
2026-04-25 13:09 28.46616 -80.84085 14129 ft 359 kts 57°
2026-04-25 13:09 28.47653 -80.81461 14661 ft 367 kts 70°
2026-04-25 13:09 28.48193 -80.78642 15185 ft 373 kts 79°
2026-04-25 13:10 28.48522 -80.75719 15721 ft 376 kts 81°
2026-04-25 13:10 28.48827 -80.72736 16237 ft 380 kts 81°
2026-04-25 13:10 28.49136 -80.69741 16755 ft 384 kts 81°
2026-04-25 13:10 28.49454 -80.66745 17267 ft 387 kts 80°
2026-04-25 13:11 28.49785 -80.63692 17769 ft 391 kts 80°
2026-04-25 13:11 28.50121 -80.60616 18283 ft 394 kts 80°
2026-04-25 13:11 28.50459 -80.57534 18791 ft 397 kts 80°
2026-04-25 13:11 28.50802 -80.54418 19327 ft 399 kts 80°
2026-04-25 13:12 28.51143 -80.51311 19839 ft 402 kts 80°
2026-04-25 13:12 28.51487 -80.48157 20331 ft 404 kts 80°
2026-04-25 13:12 28.51839 -80.44944 20806 ft 407 kts 80°
2026-04-25 13:12 28.52067 -80.42855 21120 ft 409 kts 80°
2026-04-25 13:13 28.52535 -80.38553 21762 ft 412 kts 80°
2026-04-25 13:13 28.52886 -80.35308 22215 ft 414 kts 80°
2026-04-25 13:13 28.53272 -80.32063 22648 ft 416 kts 78°
2026-04-25 13:13 28.53906 -80.28873 23066 ft 416 kts 71°
2026-04-25 13:14 28.54830 -80.25772 23476 ft 417 kts 65°
2026-04-25 13:14 28.55954 -80.22736 23882 ft 419 kts 64°
2026-04-25 13:14 28.57135 -80.19664 24310 ft 420 kts 64°
2026-04-25 13:14 28.58301 -80.16636 24730 ft 422 kts 64°
2026-04-25 13:15 28.59472 -80.13577 25121 ft 424 kts 64°
2026-04-25 13:15 28.60646 -80.10497 25498 ft 426 kts 64°
2026-04-25 13:15 28.61817 -80.07414 25875 ft 427 kts 64°
2026-04-25 13:15 28.63002 -80.04286 26248 ft 429 kts 64°
2026-04-25 13:16 28.64170 -80.01195 26607 ft 430 kts 64°
2026-04-25 13:16 28.65362 -79.98038 26963 ft 432 kts 64°
2026-04-25 13:16 28.66533 -79.94930 27307 ft 433 kts 64°
2026-04-25 13:16 28.67722 -79.91773 27649 ft 435 kts 64°
2026-04-25 13:17 28.68919 -79.88593 27981 ft 436 kts 64°
2026-04-25 13:17 28.70111 -79.85423 28292 ft 438 kts 64°
2026-04-25 13:17 28.71303 -79.82247 28597 ft 440 kts 64°
2026-04-25 13:17 28.72505 -79.79044 28894 ft 442 kts 64°
2026-04-25 13:18 28.73712 -79.75827 29184 ft 443 kts 64°
2026-04-25 13:18 28.74927 -79.72579 29471 ft 445 kts 64°
2026-04-25 13:18 28.76150 -79.69305 29761 ft 447 kts 64°
2026-04-25 13:18 28.77354 -79.66085 30019 ft 448 kts 64°
2026-04-25 13:19 28.78575 -79.62817 30278 ft 450 kts 64°
2026-04-25 13:19 28.79893 -79.59541 30517 ft 451 kts 61°
2026-04-25 13:19 28.81346 -79.56387 30750 ft 452 kts 58°
2026-04-25 13:19 28.81856 -79.55370 30824 ft 453 kts 57°
2026-04-25 13:20 28.84708 -79.50348 31205 ft 454 kts 52°
2026-04-25 13:20 28.86551 -79.47403 31429 ft 456 kts 52°
2026-04-25 13:20 28.88401 -79.44469 31657 ft 457 kts 52°
2026-04-25 13:20 28.90253 -79.41533 31875 ft 459 kts 52°
2026-04-25 13:21 28.92111 -79.38581 32082 ft 461 kts 52°
2026-04-25 13:21 28.94002 -79.35573 32297 ft 463 kts 52°
2026-04-25 13:21 28.95860 -79.32610 32555 ft 463 kts 52°
2026-04-25 13:21 28.97736 -79.29615 32858 ft 462 kts 52°
2026-04-25 13:22 29.01446 -79.23684 32958 ft 461 kts 52°
2026-04-25 13:23 29.07033 -79.14734 32964 ft 461 kts 52°
2026-04-25 13:23 29.10766 -79.08746 32965 ft 461 kts 52°
2026-04-25 13:24 29.14468 -79.02795 32965 ft 461 kts 52°
2026-04-25 13:24 29.18167 -78.96839 32965 ft 461 kts 52°
2026-04-25 13:25 29.21899 -78.90823 32970 ft 461 kts 52°
2026-04-25 13:25 29.25597 -78.84851 32974 ft 461 kts 52°
2026-04-25 13:26 29.29292 -78.78871 32973 ft 461 kts 52°
2026-04-25 13:26 29.32970 -78.72849 32973 ft 462 kts 54°
2026-04-25 13:27 29.36197 -78.66473 32971 ft 464 kts 62°
2026-04-25 13:27 29.38668 -78.59666 32973 ft 466 kts 69°
2026-04-25 13:28 29.40367 -78.52447 32971 ft 469 kts 77°
2026-04-25 13:28 29.41378 -78.45088 32972 ft 469 kts 79°
2026-04-25 13:29 29.42306 -78.37710 32973 ft 470 kts 79°
2026-04-25 13:29 29.43246 -78.30270 32966 ft 470 kts 80°
2026-04-25 13:30 29.44649 -78.19192 32972 ft 470 kts 80°
2026-04-25 13:31 29.46054 -78.08070 32976 ft 470 kts 80°
2026-04-25 13:31 29.46979 -78.00685 32973 ft 470 kts 80°
2026-04-25 13:32 29.47900 -77.93310 32967 ft 470 kts 81°
2026-04-25 13:32 29.48822 -77.85883 32965 ft 470 kts 80°
2026-04-25 13:33 29.49736 -77.78474 32962 ft 470 kts 80°
2026-04-25 13:33 29.50645 -77.71085 32964 ft 470 kts 81°
2026-04-25 13:34 29.51553 -77.63693 32965 ft 470 kts 81°
2026-04-25 13:34 29.52460 -77.56260 32964 ft 470 kts 81°
2026-04-25 13:35 29.53358 -77.48852 32965 ft 474 kts 81°
2026-04-25 13:35 29.54268 -77.41299 32961 ft 479 kts 81°
2026-04-25 13:36 29.55176 -77.33726 32967 ft 480 kts 81°
2026-04-25 13:36 29.56080 -77.26143 32974 ft 479 kts 81°
2026-04-25 13:37 29.56973 -77.18613 32975 ft 479 kts 81°
2026-04-25 13:37 29.57868 -77.11033 32979 ft 479 kts 82°
2026-04-25 13:38 29.58755 -77.03464 32982 ft 480 kts 82°
2026-04-25 13:38 29.59642 -76.95868 32988 ft 479 kts 82°
2026-04-25 13:39 29.60503 -76.88314 32987 ft 479 kts 83°
2026-04-25 13:39 29.60912 -76.80729 32987 ft 479 kts 87°
2026-04-25 13:40 29.61113 -76.73045 33329 ft 479 kts 88°
2026-04-25 13:40 29.61207 -76.69296 33982 ft 470 kts 88°
2026-04-25 13:40 29.61300 -76.65550 34537 ft 464 kts 87°
2026-04-25 13:40 29.61391 -76.61871 34875 ft 463 kts 87°
2026-04-25 13:41 29.61483 -76.58190 34983 ft 464 kts 87°
2026-04-25 13:41 29.61666 -76.50802 34990 ft 464 kts 87°
2026-04-25 13:42 29.61847 -76.43368 34989 ft 469 kts 87°
2026-04-25 13:42 29.62026 -76.35886 34989 ft 473 kts 88°
2026-04-25 13:43 29.62202 -76.28298 34990 ft 473 kts 88°
2026-04-25 13:43 29.62373 -76.20779 34989 ft 473 kts 88°
2026-04-25 13:44 29.62540 -76.13230 34988 ft 473 kts 88°
2026-04-25 13:44 29.62702 -76.05714 34988 ft 473 kts 88°
2026-04-25 13:45 29.62861 -75.98147 34987 ft 473 kts 88°
2026-04-25 13:45 29.63014 -75.90640 34986 ft 473 kts 88°
2026-04-25 13:46 29.63163 -75.83111 34984 ft 473 kts 88°
2026-04-25 13:46 29.63308 -75.75552 34984 ft 473 kts 88°
2026-04-25 13:47 29.63449 -75.68027 34986 ft 473 kts 88°
2026-04-25 13:47 29.63586 -75.60493 34985 ft 473 kts 88°
2026-04-25 13:48 29.63719 -75.52970 34985 ft 472 kts 88°
2026-04-25 13:48 29.63847 -75.45428 34983 ft 472 kts 88°
2026-04-25 13:49 29.63971 -75.37882 34986 ft 472 kts 88°
2026-04-25 13:49 29.64090 -75.30390 34983 ft 472 kts 89°
2026-04-25 13:50 29.64205 -75.22904 34983 ft 472 kts 89°
2026-04-25 13:50 29.64316 -75.15366 34984 ft 472 kts 89°
2026-04-25 13:51 29.64425 -75.07836 34986 ft 471 kts 89°
2026-04-25 13:51 29.64527 -75.00320 34987 ft 471 kts 89°
2026-04-25 13:52 29.64624 -74.92807 34986 ft 471 kts 89°
2026-04-25 13:52 29.64718 -74.85304 34987 ft 471 kts 89°
2026-04-25 13:53 29.64807 -74.77790 34988 ft 471 kts 88°
2026-04-25 13:53 29.64894 -74.70276 34988 ft 471 kts 88°
2026-04-25 13:54 29.64975 -74.62785 34992 ft 471 kts 89°
2026-04-25 13:54 29.65052 -74.55274 34995 ft 472 kts 88°
2026-04-25 13:55 29.65125 -74.47762 35000 ft 471 kts 89°
2026-04-25 13:55 29.65194 -74.40233 35002 ft 472 kts 89°
2026-04-25 13:56 29.65258 -74.32689 35003 ft 471 kts 89°
2026-04-25 13:56 29.65318 -74.25178 35004 ft 471 kts 89°
2026-04-25 13:57 29.65373 -74.17665 35006 ft 471 kts 89°
2026-04-25 13:57 29.65424 -74.10194 35005 ft 471 kts 89°
2026-04-25 13:58 29.65319 -74.02682 35004 ft 472 kts 95°
2026-04-25 13:58 29.64448 -73.95177 35008 ft 472 kts 97°
2026-04-25 13:59 29.63902 -73.87717 35009 ft 472 kts 90°
2026-04-25 13:59 29.63906 -73.80193 35011 ft 472 kts 89°
2026-04-25 14:00 29.63944 -73.73935 35012 ft 472 kts 89°
2026-04-25 14:00 29.63983 -73.65121 35012 ft 472 kts 89°
2026-04-25 14:01 29.64007 -73.57611 35013 ft 472 kts 89°
2026-04-25 14:01 29.64027 -73.50111 35014 ft 472 kts 89°
2026-04-25 14:02 29.64041 -73.42570 35016 ft 472 kts 89°
2026-04-25 14:02 29.64051 -73.35057 35014 ft 473 kts 89°
2026-04-25 14:03 29.64056 -73.27505 35011 ft 473 kts 89°
2026-04-25 14:03 29.64057 -73.19984 35009 ft 473 kts 89°
2026-04-25 14:04 29.64052 -73.12425 35008 ft 472 kts 89°
2026-04-25 14:04 29.64045 -73.04902 35009 ft 477 kts 89°
2026-04-25 14:05 29.64033 -72.97195 35006 ft 487 kts 89°
2026-04-25 14:05 29.64017 -72.89372 35004 ft 495 kts 89°
2026-04-25 14:06 29.63994 -72.81509 35006 ft 496 kts 89°
2026-04-25 14:06 29.63969 -72.73595 35013 ft 497 kts 89°
2026-04-25 14:07 29.63938 -72.65637 35013 ft 496 kts 89°
2026-04-25 14:07 29.63901 -72.57774 35012 ft 497 kts 89°
2026-04-25 14:08 29.63860 -72.49868 35013 ft 496 kts 89°
2026-04-25 14:08 29.63814 -72.41908 35013 ft 497 kts 89°
2026-04-25 14:09 29.63763 -72.34008 35007 ft 497 kts 90°
2026-04-25 14:09 29.63710 -72.26087 35007 ft 497 kts 90°
2026-04-25 14:10 29.63650 -72.18153 35008 ft 497 kts 90°
2026-04-25 14:10 29.63586 -72.10243 35007 ft 497 kts 90°
2026-04-25 14:11 29.63517 -72.02311 35007 ft 497 kts 90°
2026-04-25 14:11 29.63443 -71.94376 35007 ft 498 kts 89°
2026-04-25 14:12 29.63363 -71.86427 35009 ft 498 kts 89°
2026-04-25 14:12 29.63282 -71.78515 35005 ft 498 kts 89°
2026-04-25 14:13 29.63194 -71.70579 35007 ft 497 kts 90°
2026-04-25 14:13 29.63101 -71.62665 35004 ft 498 kts 89°
2026-04-25 14:14 29.63003 -71.54719 35008 ft 498 kts 89°
2026-04-25 14:14 29.62901 -71.46776 35007 ft 498 kts 89°
2026-04-25 14:15 29.62794 -71.38852 35005 ft 498 kts 89°
2026-04-25 14:15 29.62683 -71.30901 35004 ft 499 kts 90°
2026-04-25 14:16 29.62566 -71.22944 35005 ft 499 kts 90°
2026-04-25 14:16 29.62445 -71.15004 35006 ft 499 kts 90°
2026-04-25 14:17 29.62318 -71.07004 35006 ft 500 kts 90°
2026-04-25 14:17 29.62186 -70.99006 35007 ft 500 kts 90°
2026-04-25 14:18 29.62049 -70.90996 35006 ft 500 kts 90°
2026-04-25 14:18 29.61909 -70.83039 35007 ft 500 kts 90°
2026-04-25 14:19 29.61764 -70.75059 35007 ft 500 kts 90°
2026-04-25 14:19 29.61613 -70.67066 35008 ft 501 kts 90°
2026-04-25 14:20 29.61457 -70.59084 35010 ft 500 kts 90°
2026-04-25 14:20 29.61296 -70.51071 35013 ft 501 kts 90°
2026-04-25 14:21 29.61131 -70.43056 35013 ft 501 kts 90°
2026-04-25 14:21 29.60961 -70.35021 35014 ft 501 kts 90°
2026-04-25 14:22 29.60786 -70.27042 35019 ft 502 kts 90°
2026-04-25 14:22 29.60606 -70.19003 35023 ft 503 kts 90°
2026-04-25 14:23 29.60420 -70.10963 35025 ft 503 kts 90°
2026-04-25 14:23 29.60231 -70.02980 35026 ft 504 kts 90°
2026-04-25 14:24 29.60035 -69.94935 35028 ft 504 kts 90°
2026-04-25 14:24 29.59836 -69.86919 35028 ft 503 kts 90°
2026-04-25 14:25 29.59632 -69.78873 35028 ft 505 kts 90°
2026-04-25 14:25 29.59423 -69.70850 35028 ft 505 kts 90°
2026-04-25 14:26 29.59209 -69.62788 35027 ft 505 kts 91°
2026-04-25 14:26 29.58989 -69.54742 35028 ft 506 kts 90°
2026-04-25 14:27 29.58763 -69.46679 35027 ft 506 kts 90°
2026-04-25 14:27 29.58533 -69.38624 35027 ft 506 kts 90°
2026-04-25 14:28 29.58299 -69.30560 35027 ft 506 kts 91°
2026-04-25 14:28 29.58060 -69.22499 35027 ft 507 kts 91°
2026-04-25 14:29 29.57815 -69.14394 35028 ft 509 kts 91°
2026-04-25 14:29 29.57566 -69.06328 35028 ft 509 kts 91°
2026-04-25 14:30 29.57309 -68.98164 35028 ft 510 kts 91°
2026-04-25 14:30 29.56916 -68.86034 35028 ft 510 kts 91°
2026-04-25 14:31 29.56648 -68.77915 35028 ft 510 kts 91°
2026-04-25 14:31 29.56374 -68.69778 35028 ft 511 kts 91°
2026-04-25 14:32 29.56096 -68.61647 35028 ft 512 kts 92°
2026-04-25 14:32 29.55811 -68.53449 35028 ft 513 kts 92°
2026-04-25 14:33 29.55522 -68.45314 35028 ft 514 kts 92°
2026-04-25 14:33 29.55227 -68.37134 35029 ft 514 kts 92°
2026-04-25 14:34 29.54925 -68.28912 35027 ft 515 kts 93°
2026-04-25 14:34 29.54616 -68.20672 35028 ft 515 kts 93°
2026-04-25 14:35 29.54305 -68.12498 35028 ft 516 kts 93°
2026-04-25 14:35 29.53988 -68.04253 35028 ft 516 kts 94°
2026-04-25 14:36 29.53667 -67.96052 35029 ft 516 kts 94°
2026-04-25 14:36 29.53339 -67.87833 35028 ft 517 kts 94°
2026-04-25 14:37 29.53005 -67.79594 35029 ft 517 kts 94°
2026-04-25 14:37 29.52666 -67.71336 35029 ft 518 kts 94°
2026-04-25 14:38 29.52324 -67.63149 35029 ft 518 kts 94°
2026-04-25 14:38 29.51974 -67.54878 35028 ft 518 kts 94°
2026-04-25 14:39 29.51621 -67.46633 35028 ft 519 kts 94°
2026-04-25 14:39 29.51259 -67.38332 35028 ft 519 kts 94°
2026-04-25 14:40 29.50897 -67.30099 35028 ft 520 kts 95°
2026-04-25 14:40 29.50526 -67.21825 35027 ft 520 kts 95°
2026-04-25 14:41 29.50149 -67.13557 35030 ft 521 kts 95°
2026-04-25 14:41 29.49766 -67.05247 35030 ft 522 kts 95°
2026-04-25 14:42 29.49509 -66.99687 35029 ft 522 kts 95°
2026-04-25 14:42 29.48988 -66.88633 35027 ft 523 kts 95°
2026-04-25 14:43 29.48593 -66.80341 35029 ft 525 kts 95°
2026-04-25 14:43 29.48185 -66.71959 35028 ft 525 kts 95°
2026-04-25 14:44 29.47775 -66.63615 35029 ft 526 kts 95°
2026-04-25 14:44 29.47359 -66.55250 35028 ft 528 kts 95°
2026-04-25 14:45 29.46933 -66.46828 35030 ft 529 kts 96°
2026-04-25 14:45 29.46506 -66.38412 35028 ft 530 kts 96°
2026-04-25 14:46 29.46074 -66.30016 35027 ft 531 kts 97°
2026-04-25 14:46 29.45629 -66.21574 35029 ft 531 kts 97°
2026-04-25 14:47 29.45331 -66.15942 35027 ft 532 kts 97°
2026-04-25 14:47 29.44728 -66.04648 35029 ft 534 kts 97°
2026-04-25 14:48 29.44270 -65.96190 35019 ft 535 kts 97°
2026-04-25 14:48 29.43802 -65.87655 35029 ft 536 kts 98°
2026-04-25 14:49 29.43329 -65.79145 35024 ft 537 kts 98°
2026-04-25 14:49 29.42847 -65.70562 35027 ft 539 kts 98°
2026-04-25 14:50 29.42360 -65.62001 35026 ft 539 kts 98°
2026-04-25 14:50 29.41865 -65.53413 35023 ft 540 kts 98°
2026-04-25 14:51 29.41369 -65.44836 35025 ft 543 kts 99°
2026-04-25 14:51 29.40864 -65.36237 35022 ft 544 kts 99°
2026-04-25 14:52 29.40348 -65.27567 35023 ft 547 kts 100°
2026-04-25 14:52 29.39912 -65.20309 35025 ft 545 kts 100°
2026-04-25 14:53 29.39300 -65.10213 35027 ft 546 kts 100°
2026-04-25 14:53 29.38771 -65.01581 35027 ft 549 kts 101°
2026-04-25 14:54 29.38221 -64.92821 35024 ft 551 kts 101°
2026-04-25 14:54 29.37679 -64.84126 35026 ft 549 kts 100°
2026-04-25 14:55 29.37126 -64.75414 35024 ft 552 kts 101°
2026-04-25 14:55 29.36557 -64.66589 35025 ft 553 kts 101°
2026-04-25 14:56 29.35995 -64.57851 35021 ft 553 kts 102°
2026-04-25 14:56 29.35428 -64.49093 35023 ft 551 kts 101°
2026-04-25 14:57 29.34849 -64.40361 35022 ft 553 kts 101°
2026-04-25 14:57 29.34268 -64.31618 35015 ft 552 kts 102°
2026-04-25 14:58 29.33676 -64.22825 35018 ft 554 kts 102°
2026-04-25 14:58 29.33077 -64.14037 35021 ft 552 kts 102°
2026-04-25 14:59 29.32474 -64.05316 35019 ft 556 kts 102°
2026-04-25 14:59 29.31864 -63.96525 35023 ft 555 kts 102°
2026-04-25 15:00 29.31249 -63.87696 35031 ft 557 kts 102°
2026-04-25 15:00 29.30622 -63.78890 35028 ft 560 kts 102°
2026-04-25 15:01 29.29996 -63.70006 35026 ft 556 kts 101°
2026-04-25 15:01 29.29362 -63.61195 35029 ft 557 kts 101°
2026-04-25 15:02 29.28722 -63.52391 35024 ft 558 kts 102°
2026-04-25 15:02 29.28081 -63.43563 35033 ft 557 kts 102°
2026-04-25 15:03 29.27424 -63.34727 35045 ft 559 kts 103°
2026-04-25 15:03 29.26759 -63.25835 35045 ft 560 kts 102°
2026-04-25 15:04 29.26098 -63.16987 35049 ft 558 kts 103°
2026-04-25 15:04 29.25423 -63.08133 35047 ft 557 kts 102°
2026-04-25 15:05 29.24744 -62.99326 35047 ft 559 kts 102°
2026-04-25 15:06 29.23719 -62.86052 35047 ft 559 kts 102°
2026-04-25 15:06 29.23024 -62.77215 35047 ft 561 kts 102°
2026-04-25 15:07 29.22324 -62.68338 35042 ft 561 kts 101°
2026-04-25 15:07 29.21625 -62.59474 35035 ft 560 kts 102°
2026-04-25 15:08 29.20914 -62.50655 35028 ft 561 kts 101°
2026-04-25 15:08 29.20195 -62.41785 35028 ft 561 kts 102°
2026-04-25 15:09 29.19474 -62.32900 35015 ft 561 kts 102°
2026-04-25 15:09 29.18375 -62.19578 35019 ft 560 kts 102°
2026-04-25 15:10 29.17634 -62.10762 35024 ft 563 kts 101°
2026-04-25 15:11 29.16519 -61.97454 35025 ft 560 kts 102°
2026-04-25 15:11 29.15759 -61.88571 35019 ft 563 kts 102°
2026-04-25 15:12 29.14620 -61.75286 35022 ft 563 kts 101°
2026-04-25 15:12 29.14105 -61.69331 35018 ft 560 kts 101°
2026-04-25 15:13 29.12687 -61.53104 35014 ft 563 kts 101°
2026-04-25 15:14 29.11899 -61.44230 35015 ft 563 kts 102°
2026-04-25 15:14 29.11114 -61.35353 35012 ft 562 kts 101°
2026-04-25 15:15 29.10311 -61.26482 35007 ft 565 kts 101°
2026-04-25 15:15 29.09509 -61.17577 35010 ft 564 kts 101°
2026-04-25 15:16 29.08705 -61.08686 35025 ft 563 kts 100°
2026-04-25 15:16 29.07477 -60.95314 35025 ft 565 kts 101°
2026-04-25 15:17 29.06241 -60.82008 35026 ft 566 kts 101°
2026-04-25 15:18 29.05412 -60.73103 35025 ft 564 kts 101°
2026-04-25 15:18 29.04144 -60.59703 35025 ft 566 kts 100°
2026-04-25 15:19 29.03574 -60.53740 35020 ft 567 kts 101°
2026-04-25 15:19 29.02430 -60.41816 35023 ft 569 kts 101°
2026-04-25 15:20 29.01569 -60.32894 35014 ft 567 kts 101°
2026-04-25 15:20 29.00694 -60.23948 35016 ft 569 kts 101°
2026-04-25 15:21 28.99819 -60.15009 35019 ft 570 kts 101°
2026-04-25 15:21 28.98929 -60.05980 35019 ft 571 kts 101°
2026-04-25 15:22 28.98326 -59.96948 35013 ft 575 kts 95°
2026-04-25 15:22 28.98374 -59.87862 35020 ft 575 kts 92°
2026-04-25 15:23 28.98505 -59.78707 35025 ft 576 kts 92°
2026-04-25 15:23 28.98609 -59.69633 35022 ft 576 kts 92°
2026-04-25 15:24 28.98690 -59.60512 35020 ft 575 kts 93°
2026-04-25 15:24 28.98736 -59.54424 35017 ft 576 kts 92°
2026-04-25 15:25 28.98825 -59.42315 35021 ft 576 kts 92°
2026-04-25 15:25 28.98890 -59.33167 35012 ft 575 kts 92°
2026-04-25 15:26 28.98940 -59.24065 35013 ft 574 kts 92°
2026-04-25 15:26 28.98986 -59.14945 35014 ft 575 kts 92°
2026-04-25 15:27 28.99027 -59.05844 35009 ft 573 kts 92°
2026-04-25 15:28 28.99078 -58.92279 35010 ft 574 kts 93°
2026-04-25 15:28 28.99103 -58.83175 35006 ft 573 kts 92°
2026-04-25 15:29 28.99121 -58.74115 35006 ft 574 kts 92°
2026-04-25 15:29 28.99136 -58.65025 35007 ft 573 kts 92°
2026-04-25 15:30 28.99140 -58.55935 35008 ft 574 kts 92°
2026-04-25 15:30 28.99137 -58.46867 35010 ft 574 kts 92°
2026-04-25 15:31 28.99133 -58.37766 35012 ft 574 kts 92°
2026-04-25 15:31 28.99127 -58.28668 35015 ft 574 kts 92°
2026-04-25 15:32 28.99109 -58.19576 35022 ft 574 kts 92°
2026-04-25 15:32 28.99087 -58.10467 35027 ft 574 kts 92°
2026-04-25 15:33 28.99044 -57.96916 35028 ft 567 kts 92°
2026-04-25 15:33 28.98997 -57.87935 35028 ft 569 kts 92°
2026-04-25 15:34 28.98956 -57.78949 35024 ft 568 kts 92°
2026-04-25 15:34 28.98924 -57.72948 35025 ft 569 kts 92°
2026-04-25 15:35 28.98819 -57.56443 35021 ft 569 kts 92°
2026-04-25 15:36 28.98721 -57.42919 35026 ft 569 kts 92°
2026-04-25 15:36 28.98648 -57.33937 35022 ft 568 kts 93°
2026-04-25 15:37 28.98563 -57.24920 35027 ft 569 kts 93°
2026-04-25 15:37 28.98478 -57.15858 35028 ft 570 kts 92°
2026-04-25 15:38 28.98388 -57.06887 35024 ft 570 kts 93°
2026-04-25 15:38 28.98350 -56.97852 35026 ft 571 kts 90°
2026-04-25 15:39 28.98563 -56.88799 35026 ft 571 kts 90°
2026-04-25 15:39 28.98807 -56.79746 35023 ft 571 kts 90°
2026-04-25 15:40 28.98959 -56.73733 35021 ft 572 kts 89°
2026-04-25 15:40 28.99246 -56.61665 35019 ft 573 kts 90°
2026-04-25 15:41 28.99453 -56.52618 35016 ft 572 kts 90°
2026-04-25 15:41 28.99652 -56.43555 35011 ft 572 kts 90°
2026-04-25 15:42 28.99845 -56.34486 35018 ft 574 kts 90°
2026-04-25 15:42 29.00037 -56.25431 35010 ft 573 kts 90°
2026-04-25 15:43 29.00213 -56.16367 35007 ft 574 kts 90°
2026-04-25 15:43 29.00394 -56.07264 35007 ft 574 kts 90°
2026-04-25 15:44 29.00568 -55.98129 35008 ft 573 kts 90°
2026-04-25 15:44 29.00727 -55.89051 35017 ft 575 kts 90°
2026-04-25 15:45 29.00885 -55.79975 35019 ft 574 kts 91°
2026-04-25 15:45 29.00988 -55.73875 35020 ft 574 kts 90°
2026-04-25 15:46 29.01184 -55.61795 35019 ft 575 kts 91°
2026-04-25 15:46 29.01325 -55.52670 35009 ft 575 kts 90°
2026-04-25 15:47 29.01455 -55.43574 35003 ft 576 kts 90°
2026-04-25 15:47 29.01585 -55.34457 34999 ft 576 kts 91°
2026-04-25 15:48 29.01707 -55.25323 34995 ft 576 kts 91°
2026-04-25 15:48 29.01820 -55.16176 35000 ft 576 kts 91°
2026-04-25 15:49 29.01927 -55.07058 35006 ft 576 kts 91°
2026-04-25 15:49 29.02034 -54.97916 35000 ft 577 kts 90°
2026-04-25 15:50 29.02129 -54.88802 35001 ft 577 kts 90°
2026-04-25 15:50 29.02224 -54.79621 35005 ft 577 kts 90°
2026-04-25 15:51 29.02279 -54.73553 35006 ft 577 kts 90°
2026-04-25 15:51 29.02387 -54.61374 34993 ft 578 kts 91°
2026-04-25 15:52 29.02458 -54.52193 34998 ft 577 kts 91°
2026-04-25 15:52 29.02526 -54.43089 34997 ft 577 kts 91°
2026-04-25 15:53 29.02584 -54.33926 34991 ft 579 kts 91°
2026-04-25 15:53 29.02635 -54.24873 34989 ft 578 kts 91°
2026-04-25 15:54 29.02685 -54.15744 34990 ft 578 kts 91°
2026-04-25 15:54 29.02724 -54.06547 34986 ft 578 kts 91°
2026-04-25 15:55 29.02760 -53.97385 34987 ft 579 kts 91°
2026-04-25 15:55 29.02787 -53.88266 34999 ft 579 kts 91°
2026-04-25 15:56 29.02810 -53.79096 34999 ft 578 kts 91°
2026-04-25 15:56 29.02826 -53.69948 34996 ft 579 kts 91°
2026-04-25 15:57 29.02838 -53.60753 34997 ft 579 kts 91°
2026-04-25 15:57 29.02839 -53.51535 34994 ft 579 kts 91°
2026-04-25 15:58 29.02838 -53.42365 34995 ft 579 kts 91°
2026-04-25 15:58 29.02831 -53.33183 34992 ft 579 kts 91°
2026-04-25 15:59 29.02817 -53.24064 35005 ft 580 kts 92°
2026-04-25 15:59 29.02796 -53.14865 35006 ft 579 kts 92°
2026-04-25 16:00 29.02777 -53.08727 34998 ft 579 kts 91°
2026-04-25 16:00 29.02738 -52.96527 35005 ft 578 kts 92°
2026-04-25 16:01 29.02695 -52.87385 35008 ft 579 kts 92°
2026-04-25 16:01 29.02652 -52.78200 35004 ft 579 kts 92°
2026-04-25 16:02 29.02600 -52.69045 35004 ft 579 kts 92°
2026-04-25 16:02 29.02541 -52.59856 35009 ft 579 kts 91°
2026-04-25 16:03 29.02477 -52.50682 35007 ft 579 kts 92°
2026-04-25 16:03 29.02404 -52.41511 35000 ft 580 kts 92°
2026-04-25 16:04 29.02328 -52.32331 35003 ft 579 kts 92°
2026-04-25 16:04 29.02252 -52.23199 35008 ft 579 kts 92°
2026-04-25 16:05 29.02161 -52.14043 35006 ft 579 kts 92°
2026-04-25 16:06 29.02016 -52.00288 35008 ft 579 kts 93°
2026-04-25 16:06 29.01907 -51.91091 35006 ft 579 kts 92°
2026-04-25 16:07 29.01797 -51.81911 35004 ft 577 kts 92°
2026-04-25 16:07 29.01681 -51.72809 35011 ft 574 kts 92°
2026-04-25 16:08 29.01560 -51.63702 35002 ft 573 kts 92°
2026-04-25 16:08 29.01428 -51.54644 34995 ft 574 kts 92°
2026-04-25 16:09 29.01296 -51.45538 34995 ft 573 kts 92°
2026-04-25 16:09 29.01154 -51.36517 34987 ft 574 kts 92°
2026-04-25 16:10 29.01010 -51.27399 34983 ft 573 kts 92°
2026-04-25 16:10 29.00857 -51.18316 34985 ft 573 kts 93°
2026-04-25 16:11 29.00698 -51.09231 34983 ft 573 kts 93°
2026-04-25 16:11 29.00532 -51.00127 34993 ft 573 kts 92°
2026-04-25 16:12 29.00361 -50.91092 34988 ft 574 kts 92°
2026-04-25 16:12 29.00185 -50.81999 34993 ft 574 kts 92°
2026-04-25 16:13 29.00003 -50.72901 34993 ft 574 kts 92°
2026-04-25 16:13 28.99812 -50.63830 34981 ft 574 kts 92°
2026-04-25 16:14 28.99614 -50.54752 34985 ft 574 kts 92°
2026-04-25 16:14 28.99413 -50.45670 34986 ft 574 kts 92°
2026-04-25 16:15 28.99206 -50.36560 34989 ft 574 kts 92°
2026-04-25 16:15 28.98993 -50.27469 34990 ft 574 kts 93°
2026-04-25 16:16 28.98775 -50.18380 35005 ft 574 kts 93°
2026-04-25 16:16 28.98548 -50.09287 35006 ft 574 kts 93°
2026-04-25 16:17 28.98332 -50.00185 35003 ft 574 kts 92°
2026-04-25 16:17 28.98425 -49.91103 35009 ft 574 kts 90°
2026-04-25 16:18 28.98603 -49.82011 35012 ft 574 kts 89°
2026-04-25 16:18 28.98768 -49.72955 35011 ft 574 kts 90°
2026-04-25 16:19 28.98921 -49.63882 35016 ft 574 kts 90°
2026-04-25 16:19 28.99058 -49.54757 35018 ft 574 kts 89°
2026-04-25 16:20 28.99260 -49.41145 35018 ft 574 kts 89°
2026-04-25 16:21 28.99442 -49.27501 35022 ft 574 kts 90°
2026-04-25 16:21 28.99560 -49.18376 35012 ft 574 kts 90°
2026-04-25 16:22 28.99672 -49.09316 35020 ft 575 kts 90°
2026-04-25 16:22 28.99779 -49.00187 35022 ft 575 kts 89°
2026-04-25 16:23 28.99882 -48.91124 35026 ft 575 kts 90°
2026-04-25 16:23 28.99967 -48.82002 35031 ft 575 kts 89°
2026-04-25 16:24 29.00053 -48.72911 35036 ft 575 kts 89°
2026-04-25 16:24 29.00134 -48.63779 35029 ft 575 kts 89°
2026-04-25 16:25 29.00207 -48.54708 35029 ft 575 kts 90°
2026-04-25 16:25 29.00274 -48.45575 35030 ft 574 kts 89°
2026-04-25 16:26 29.00334 -48.36465 35030 ft 574 kts 89°
2026-04-25 16:26 29.00386 -48.27366 35026 ft 575 kts 90°
2026-04-25 16:27 29.00438 -48.18301 35026 ft 574 kts 90°
2026-04-25 16:27 29.00478 -48.09225 35030 ft 574 kts 90°
2026-04-25 16:28 29.00513 -48.00085 35025 ft 575 kts 90°
2026-04-25 16:28 29.00547 -47.91028 35029 ft 574 kts 90°
2026-04-25 16:29 29.00568 -47.81920 35030 ft 574 kts 90°
2026-04-25 16:29 29.00588 -47.72822 35030 ft 574 kts 89°
2026-04-25 16:30 29.00599 -47.63703 35036 ft 575 kts 90°
2026-04-25 16:30 29.00609 -47.54642 35036 ft 574 kts 90°
2026-04-25 16:31 29.00605 -47.45493 35036 ft 574 kts 90°
2026-04-25 16:31 29.00599 -47.36438 35042 ft 573 kts 89°
2026-04-25 16:32 29.00587 -47.27335 35037 ft 573 kts 90°
2026-04-25 16:32 29.00565 -47.18243 35045 ft 574 kts 90°
2026-04-25 16:33 29.00542 -47.09162 35044 ft 574 kts 90°
2026-04-25 16:33 29.00514 -47.00110 35044 ft 573 kts 90°
2026-04-25 16:34 29.00477 -46.91008 35051 ft 573 kts 90°
2026-04-25 16:34 29.00431 -46.81942 35048 ft 573 kts 90°
2026-04-25 16:35 29.00386 -46.72818 35048 ft 574 kts 90°
2026-04-25 16:35 29.00330 -46.63658 35044 ft 573 kts 89°
2026-04-25 16:36 29.00268 -46.54578 35050 ft 573 kts 90°
2026-04-25 16:36 29.00202 -46.45524 35051 ft 573 kts 90°
2026-04-25 16:37 29.00129 -46.36424 35051 ft 574 kts 90°
2026-04-25 16:37 29.00049 -46.27367 35047 ft 573 kts 90°
2026-04-25 16:38 28.99963 -46.18225 35048 ft 572 kts 90°
2026-04-25 16:38 28.99873 -46.09146 35051 ft 572 kts 90°
2026-04-25 16:39 28.99774 -45.99990 35049 ft 571 kts 90°
2026-04-25 16:39 28.99665 -45.90901 35049 ft 571 kts 90°
2026-04-25 16:40 28.99555 -45.81864 35046 ft 571 kts 89°
2026-04-25 16:40 28.99441 -45.72832 35050 ft 572 kts 90°
2026-04-25 16:41 28.99317 -45.63743 35050 ft 571 kts 90°
2026-04-25 16:41 28.99124 -45.50171 35052 ft 571 kts 90°
2026-04-25 16:42 28.98986 -45.41119 35054 ft 572 kts 89°
2026-04-25 16:42 28.98845 -45.32050 35052 ft 572 kts 90°
2026-04-25 16:43 28.98703 -45.23003 35061 ft 573 kts 90°
2026-04-25 16:43 28.98548 -45.13948 35061 ft 573 kts 90°
2026-04-25 16:44 28.98372 -45.04842 35064 ft 573 kts 92°
2026-04-25 16:44 28.97027 -44.95939 35071 ft 573 kts 109°
2026-04-25 16:45 28.94333 -44.87413 35067 ft 570 kts 114°
2026-04-25 16:45 28.91511 -44.78983 35067 ft 571 kts 113°
2026-04-25 16:46 28.88735 -44.70527 35069 ft 572 kts 112°
2026-04-25 16:46 28.86891 -44.64835 35068 ft 572 kts 112°
2026-04-25 16:47 28.83251 -44.53553 35068 ft 570 kts 112°
2026-04-25 16:47 28.80488 -44.45027 35071 ft 571 kts 112°
2026-04-25 16:48 28.77742 -44.36570 35070 ft 571 kts 112°
2026-04-25 16:48 28.74960 -44.28030 35071 ft 570 kts 112°
2026-04-25 16:49 28.72203 -44.19597 35075 ft 571 kts 112°
2026-04-25 16:49 28.69448 -44.11173 35075 ft 570 kts 112°
2026-04-25 16:50 28.66664 -44.02680 35076 ft 570 kts 112°
2026-04-25 16:50 28.63891 -43.94239 35079 ft 570 kts 112°
2026-04-25 16:51 28.61119 -43.85834 35080 ft 570 kts 112°
2026-04-25 16:51 28.59257 -43.80201 35082 ft 569 kts 112°
2026-04-25 16:52 28.55536 -43.68975 35084 ft 570 kts 112°
2026-04-25 16:52 28.52747 -43.60567 35085 ft 571 kts 112°
2026-04-25 16:53 28.48520 -43.47876 35082 ft 570 kts 112°
2026-04-25 16:54 28.45698 -43.39430 35086 ft 570 kts 112°
2026-04-25 16:54 28.42885 -43.31027 35083 ft 570 kts 113°
2026-04-25 16:55 28.40069 -43.22638 35091 ft 571 kts 112°
2026-04-25 16:55 28.37226 -43.14187 35088 ft 570 kts 112°
2026-04-25 16:56 28.34386 -43.05754 35091 ft 570 kts 112°
2026-04-25 16:56 28.31544 -42.97348 35088 ft 570 kts 113°
2026-04-25 16:57 28.28712 -42.88983 35088 ft 570 kts 112°
2026-04-25 16:57 28.25855 -42.80570 35092 ft 571 kts 112°
2026-04-25 16:58 28.23006 -42.72205 35097 ft 570 kts 112°
2026-04-25 16:58 28.20145 -42.63804 35091 ft 571 kts 112°
2026-04-25 16:59 28.17277 -42.55425 35094 ft 571 kts 112°
2026-04-25 16:59 28.14432 -42.47113 35101 ft 570 kts 112°
2026-04-25 17:00 28.12037 -42.40149 35095 ft 571 kts 112°
2026-04-25 17:00 28.08667 -42.30343 35096 ft 571 kts 113°
2026-04-25 17:01 28.05778 -42.21977 35105 ft 571 kts 113°
2026-04-25 17:01 28.02886 -42.13595 35102 ft 571 kts 113°
2026-04-25 17:02 27.99995 -42.05255 35111 ft 570 kts 112°
2026-04-25 17:02 27.96695 -41.97114 35109 ft 568 kts 121°
2026-04-25 17:03 27.92891 -41.89339 35110 ft 568 kts 122°
2026-04-25 17:03 27.89019 -41.81538 35107 ft 568 kts 122°
2026-04-25 17:04 27.85186 -41.73770 35108 ft 568 kts 121°
2026-04-25 17:04 27.81356 -41.65998 35101 ft 568 kts 122°
2026-04-25 17:05 27.77508 -41.58186 35102 ft 568 kts 121°
2026-04-25 17:05 27.71745 -41.46506 35102 ft 568 kts 122°
2026-04-25 17:06 27.67883 -41.38717 35105 ft 570 kts 121°
2026-04-25 17:06 27.64032 -41.30954 35102 ft 569 kts 122°
2026-04-25 17:07 27.60128 -41.23098 35102 ft 570 kts 122°
2026-04-25 17:07 27.56226 -41.15256 35104 ft 569 kts 122°
2026-04-25 17:08 27.52335 -41.07449 35100 ft 569 kts 122°
2026-04-25 17:08 27.48407 -40.99596 35102 ft 569 kts 121°
2026-04-25 17:09 27.44540 -40.91862 35100 ft 569 kts 121°
2026-04-25 17:09 27.40654 -40.84117 35099 ft 568 kts 121°
2026-04-25 17:10 27.36716 -40.76278 35102 ft 569 kts 121°
2026-04-25 17:10 27.32820 -40.68537 35101 ft 569 kts 122°
2026-04-25 17:11 27.28908 -40.60771 35099 ft 568 kts 121°
2026-04-25 17:11 27.25017 -40.53073 35109 ft 569 kts 121°
2026-04-25 17:12 27.21116 -40.45359 35103 ft 568 kts 121°
2026-04-25 17:12 27.17206 -40.37647 35106 ft 569 kts 121°
2026-04-25 17:13 27.14608 -40.32523 35099 ft 568 kts 122°
2026-04-25 17:13 27.09387 -40.22251 35096 ft 568 kts 122°
2026-04-25 17:14 27.05448 -40.14520 35102 ft 568 kts 122°
2026-04-25 17:14 27.01535 -40.06836 35109 ft 569 kts 122°
2026-04-25 17:15 26.97656 -39.99135 35114 ft 570 kts 120°
2026-04-25 17:15 26.93974 -39.91327 35114 ft 570 kts 118°
2026-04-25 17:16 26.90290 -39.83443 35121 ft 571 kts 119°
2026-04-25 17:16 26.88445 -39.79503 35420 ft 570 kts 118°
2026-04-25 17:16 26.86645 -39.75656 36227 ft 559 kts 118°
2026-04-25 17:17 26.84864 -39.71847 36869 ft 552 kts 120°
2026-04-25 17:17 26.83067 -39.68017 37111 ft 553 kts 119°
2026-04-25 17:17 26.79454 -39.60365 37110 ft 565 kts 119°
2026-04-25 17:18 26.75709 -39.52441 37100 ft 575 kts 120°
2026-04-25 17:18 26.71942 -39.44469 37104 ft 577 kts 120°
2026-04-25 17:19 26.68172 -39.36520 37108 ft 578 kts 120°
2026-04-25 17:19 26.64411 -39.28585 37107 ft 578 kts 120°
2026-04-25 17:20 26.60643 -39.20670 37105 ft 578 kts 120°
2026-04-25 17:20 26.56875 -39.12758 37106 ft 579 kts 120°
2026-04-25 17:21 26.53090 -39.04826 37104 ft 578 kts 120°
2026-04-25 17:21 26.49300 -38.96896 37099 ft 579 kts 120°
2026-04-25 17:22 26.46784 -38.91643 37102 ft 579 kts 119°
2026-04-25 17:22 26.41733 -38.81113 37098 ft 579 kts 120°
2026-04-25 17:23 26.37920 -38.73176 37099 ft 579 kts 120°
2026-04-25 17:23 26.34124 -38.65295 37093 ft 579 kts 120°
2026-04-25 17:24 26.30301 -38.57381 37097 ft 580 kts 119°
2026-04-25 17:24 26.26479 -38.49472 37094 ft 580 kts 119°
2026-04-25 17:25 26.22654 -38.41561 37093 ft 580 kts 119°
2026-04-25 17:25 26.18808 -38.33622 37092 ft 580 kts 120°
2026-04-25 17:26 26.14997 -38.25791 37089 ft 581 kts 120°
2026-04-25 17:26 26.11385 -38.18373 37091 ft 580 kts 120°
2026-04-25 17:27 26.07551 -38.10504 37091 ft 580 kts 120°
2026-04-25 17:27 26.04999 -38.05285 37092 ft 581 kts 120°
2026-04-25 17:28 25.99846 -37.94748 37090 ft 581 kts 120°
2026-04-25 17:28 25.95981 -37.86863 37090 ft 582 kts 120°
2026-04-25 17:29 25.92114 -37.78987 37089 ft 581 kts 120°
2026-04-25 17:29 25.88272 -37.71165 37088 ft 581 kts 120°
2026-04-25 17:30 25.84388 -37.63286 37090 ft 581 kts 120°
2026-04-25 17:30 25.80523 -37.55458 37089 ft 581 kts 120°
2026-04-25 17:31 25.76623 -37.47564 37090 ft 581 kts 120°
2026-04-25 17:31 25.72739 -37.39726 37090 ft 581 kts 119°
2026-04-25 17:32 25.68856 -37.31898 37085 ft 581 kts 120°
2026-04-25 17:32 25.64963 -37.24063 37089 ft 582 kts 120°
2026-04-25 17:33 25.61060 -37.16219 37090 ft 581 kts 120°
2026-04-25 17:33 25.57163 -37.08423 37090 ft 582 kts 120°
2026-04-25 17:34 25.53253 -37.00592 37090 ft 581 kts 120°
2026-04-25 17:34 25.49350 -36.92792 37087 ft 582 kts 120°
2026-04-25 17:35 25.45403 -36.84924 37092 ft 581 kts 121°
2026-04-25 17:35 25.41495 -36.77143 37091 ft 581 kts 120°
2026-04-25 17:36 25.37571 -36.69340 37090 ft 582 kts 120°
2026-04-25 17:36 25.33623 -36.61504 37093 ft 582 kts 120°
2026-04-25 17:37 25.29719 -36.53756 37088 ft 581 kts 120°
2026-04-25 17:37 25.25767 -36.45945 37092 ft 582 kts 120°
2026-04-25 17:38 25.23123 -36.40718 37094 ft 581 kts 120°
2026-04-25 17:38 25.17873 -36.30362 37086 ft 582 kts 120°
2026-04-25 17:39 25.13885 -36.22517 37090 ft 581 kts 121°
2026-04-25 17:39 25.09938 -36.14762 37091 ft 581 kts 121°
2026-04-25 17:40 25.05985 -36.07005 37093 ft 581 kts 121°
2026-04-25 17:40 25.02024 -35.99257 37091 ft 582 kts 120°
2026-04-25 17:41 24.98028 -35.91444 37089 ft 582 kts 120°
2026-04-25 17:41 24.94043 -35.83677 37094 ft 582 kts 121°
2026-04-25 17:42 24.90077 -35.75949 37096 ft 582 kts 121°
2026-04-25 17:42 24.86117 -35.68240 37097 ft 581 kts 121°
2026-04-25 17:43 24.82106 -35.60460 37100 ft 582 kts 121°
2026-04-25 17:43 24.78086 -35.52657 37102 ft 582 kts 121°
2026-04-25 17:44 24.74101 -35.44948 37102 ft 582 kts 120°
2026-04-25 17:44 24.70109 -35.37230 37104 ft 581 kts 121°
2026-04-25 17:45 24.67442 -35.32081 37100 ft 581 kts 121°
2026-04-25 17:45 24.62101 -35.21798 37108 ft 582 kts 121°
2026-04-25 17:46 24.58082 -35.14069 37108 ft 582 kts 121°
2026-04-25 17:46 24.54092 -35.06401 37111 ft 582 kts 121°
2026-04-25 17:47 24.50075 -34.98698 37111 ft 582 kts 120°
2026-04-25 17:47 24.46061 -34.91018 37111 ft 581 kts 121°
2026-04-25 17:48 24.40019 -34.79478 37112 ft 581 kts 121°
2026-04-25 17:49 24.36012 -34.71837 37112 ft 582 kts 121°
2026-04-25 17:49 24.31968 -34.64146 37111 ft 582 kts 121°
2026-04-25 17:50 24.27924 -34.56457 37113 ft 581 kts 121°
2026-04-25 17:50 24.23909 -34.48845 37111 ft 581 kts 120°
2026-04-25 17:51 24.19867 -34.41185 37112 ft 580 kts 121°
2026-04-25 17:51 24.15818 -34.33529 37107 ft 581 kts 121°
2026-04-25 17:52 24.11779 -34.25897 37112 ft 580 kts 121°
2026-04-25 17:52 24.07722 -34.18247 37111 ft 581 kts 122°
2026-04-25 17:53 24.03649 -34.10566 37111 ft 580 kts 121°
2026-04-25 17:53 23.99574 -34.02902 37113 ft 580 kts 121°
2026-04-25 17:54 23.95410 -33.95359 37108 ft 580 kts 124°
2026-04-25 17:54 23.91084 -33.87895 37107 ft 580 kts 124°
2026-04-25 17:55 23.86755 -33.80425 37108 ft 580 kts 124°
2026-04-25 17:55 23.82474 -33.73002 37110 ft 579 kts 123°
2026-04-25 17:56 23.78176 -33.65541 37108 ft 580 kts 123°
2026-04-25 17:56 23.73891 -33.58099 37104 ft 579 kts 123°
2026-04-25 17:57 23.69596 -33.50661 37106 ft 581 kts 123°
2026-04-25 17:57 23.65291 -33.43212 37102 ft 580 kts 124°
2026-04-25 17:58 23.60996 -33.35798 37105 ft 580 kts 124°
2026-04-25 17:58 23.56707 -33.28404 37102 ft 580 kts 123°
2026-04-25 17:59 23.52395 -33.20989 37104 ft 581 kts 124°
2026-04-25 17:59 23.48061 -33.13533 37101 ft 580 kts 124°
2026-04-25 18:00 23.44488 -33.07394 37100 ft 581 kts 124°
2026-04-25 18:00 23.39439 -32.98743 37098 ft 580 kts 124°
2026-04-25 18:01 23.35102 -32.91324 37100 ft 580 kts 124°
2026-04-25 18:01 23.30799 -32.83973 37098 ft 580 kts 124°
2026-04-25 18:02 23.26471 -32.76585 37100 ft 580 kts 124°
2026-04-25 18:02 23.22125 -32.69180 37098 ft 580 kts 124°
2026-04-25 18:03 23.17807 -32.61826 37098 ft 578 kts 124°
2026-04-25 18:03 23.13485 -32.54483 37106 ft 578 kts 124°
2026-04-25 18:04 23.09146 -32.47122 37110 ft 578 kts 124°
2026-04-25 18:04 23.04830 -32.39815 37112 ft 578 kts 124°
2026-04-25 18:05 23.00483 -32.32454 37108 ft 577 kts 125°
2026-04-25 18:05 22.96177 -32.25178 37109 ft 577 kts 125°
2026-04-25 18:06 22.91838 -32.17856 37111 ft 576 kts 125°
2026-04-25 18:06 22.87509 -32.10563 37108 ft 576 kts 125°
2026-04-25 18:07 22.83187 -32.03291 37111 ft 576 kts 125°
2026-04-25 18:07 22.78837 -31.95988 37102 ft 576 kts 124°
2026-04-25 18:08 22.74492 -31.88696 37090 ft 576 kts 124°
2026-04-25 18:08 22.70148 -31.81416 37086 ft 575 kts 124°
2026-04-25 18:09 22.65956 -31.74398 37083 ft 575 kts 124°
2026-04-25 18:09 22.61623 -31.67160 37083 ft 574 kts 125°
2026-04-25 18:10 22.58736 -31.62344 37080 ft 574 kts 125°
2026-04-25 18:10 22.52915 -31.52642 37077 ft 574 kts 125°
2026-04-25 18:11 22.48547 -31.45376 37080 ft 575 kts 125°
2026-04-25 18:11 22.44187 -31.38127 37081 ft 574 kts 125°
2026-04-25 18:12 22.39809 -31.30860 37072 ft 573 kts 126°
2026-04-25 18:12 22.35455 -31.23651 37077 ft 574 kts 126°
2026-04-25 18:13 22.31090 -31.16423 37073 ft 573 kts 126°
2026-04-25 18:13 22.26707 -31.09187 37077 ft 573 kts 126°
2026-04-25 18:14 22.20160 -30.98382 37076 ft 573 kts 126°
2026-04-25 18:14 22.15786 -30.91177 37072 ft 572 kts 126°
2026-04-25 18:15 22.11427 -30.84006 37071 ft 571 kts 126°
2026-04-25 18:15 22.07075 -30.76862 37068 ft 571 kts 126°
2026-04-25 18:16 22.02745 -30.69757 37070 ft 570 kts 126°
2026-04-25 18:17 21.96211 -30.59054 37069 ft 569 kts 126°
2026-04-25 18:17 21.91891 -30.51988 37070 ft 568 kts 126°
2026-04-25 18:18 21.87542 -30.44887 37068 ft 568 kts 126°
2026-04-25 18:18 21.83201 -30.37808 37067 ft 568 kts 126°
2026-04-25 18:19 21.78858 -30.30730 37060 ft 566 kts 126°
2026-04-25 18:19 21.74532 -30.23695 37063 ft 566 kts 126°
2026-04-25 18:20 21.70194 -30.16645 37064 ft 565 kts 126°
2026-04-25 18:20 21.65850 -30.09595 37063 ft 565 kts 126°
2026-04-25 18:21 21.61507 -30.02553 37063 ft 564 kts 126°
2026-04-25 18:21 21.57188 -29.95562 37061 ft 564 kts 126°
2026-04-25 18:22 21.52870 -29.88567 37059 ft 564 kts 126°
2026-04-25 18:22 21.48529 -29.81548 37061 ft 564 kts 126°
2026-04-25 18:23 21.44044 -29.74628 37059 ft 563 kts 128°
2026-04-25 18:23 21.39510 -29.67838 37058 ft 562 kts 128°
2026-04-25 18:24 21.34965 -29.61003 37054 ft 561 kts 128°
2026-04-25 18:24 21.30456 -29.54201 37055 ft 561 kts 128°
2026-04-25 18:25 21.25929 -29.47363 37054 ft 562 kts 128°
2026-04-25 18:25 21.21432 -29.40582 37055 ft 561 kts 128°
2026-04-25 18:26 21.16898 -29.33752 37047 ft 561 kts 128°
2026-04-25 18:26 21.12379 -29.26953 37051 ft 561 kts 128°
2026-04-25 18:27 21.07869 -29.20177 37046 ft 560 kts 128°
2026-04-25 18:27 21.03357 -29.13409 37050 ft 560 kts 128°
2026-04-25 18:28 20.98833 -29.06623 37049 ft 560 kts 128°
2026-04-25 18:28 20.94305 -28.99844 37045 ft 559 kts 128°
2026-04-25 18:29 20.87535 -28.89726 37047 ft 558 kts 128°
2026-04-25 18:30 20.78507 -28.76259 37045 ft 557 kts 128°
2026-04-25 18:30 20.73988 -28.69525 37043 ft 556 kts 128°
2026-04-25 18:31 20.69504 -28.62856 37042 ft 556 kts 128°
2026-04-25 18:31 20.64973 -28.56125 37041 ft 556 kts 128°
2026-04-25 18:32 20.60483 -28.49463 37040 ft 555 kts 128°
2026-04-25 18:32 20.55958 -28.42755 37039 ft 555 kts 128°
2026-04-25 18:33 20.51459 -28.36090 37040 ft 554 kts 128°
2026-04-25 18:33 20.46962 -28.29441 37033 ft 553 kts 128°
2026-04-25 18:34 20.42469 -28.22802 37036 ft 553 kts 129°
2026-04-25 18:34 20.37970 -28.16167 37035 ft 552 kts 129°
2026-04-25 18:35 20.33478 -28.09547 37034 ft 552 kts 129°
2026-04-25 18:35 20.28993 -28.02945 37033 ft 552 kts 129°
2026-04-25 18:36 20.24494 -27.96330 37035 ft 552 kts 129°
2026-04-25 18:36 20.19984 -27.89704 37036 ft 551 kts 129°
2026-04-25 18:37 20.15501 -27.83126 37043 ft 550 kts 129°
2026-04-25 18:37 20.11027 -27.76571 37040 ft 548 kts 129°
2026-04-25 18:38 20.06528 -27.69988 37033 ft 549 kts 129°
2026-04-25 18:38 20.02038 -27.63421 37030 ft 549 kts 129°
2026-04-25 18:39 19.97549 -27.56864 37028 ft 548 kts 129°
2026-04-25 18:39 19.93063 -27.50318 37027 ft 548 kts 129°
2026-04-25 18:40 19.88532 -27.43713 37028 ft 548 kts 129°
2026-04-25 18:40 19.84053 -27.37195 37026 ft 547 kts 129°
2026-04-25 18:41 19.79537 -27.30629 37023 ft 546 kts 129°
2026-04-25 18:41 19.75040 -27.24095 37024 ft 546 kts 129°
2026-04-25 18:42 19.72081 -27.19801 37024 ft 546 kts 129°
2026-04-25 18:42 19.66117 -27.11155 37023 ft 545 kts 129°
2026-04-25 18:43 19.61616 -27.04637 37022 ft 545 kts 129°
2026-04-25 18:43 19.57143 -26.98168 37021 ft 544 kts 129°
2026-04-25 18:44 19.52677 -26.91712 37020 ft 543 kts 129°
2026-04-25 18:44 19.48238 -26.85308 37018 ft 543 kts 129°
2026-04-25 18:45 19.43758 -26.78846 37018 ft 543 kts 129°
2026-04-25 18:45 19.39308 -26.72434 37018 ft 542 kts 129°
2026-04-25 18:46 19.34838 -26.66004 37016 ft 542 kts 129°
2026-04-25 18:46 19.30373 -26.59585 37016 ft 542 kts 129°
2026-04-25 18:47 19.25906 -26.53171 37013 ft 540 kts 129°
2026-04-25 18:47 19.21474 -26.46813 37015 ft 540 kts 129°
2026-04-25 18:48 19.17005 -26.40408 37012 ft 539 kts 129°
2026-04-25 18:48 19.12566 -26.34051 37001 ft 538 kts 129°
2026-04-25 18:49 19.08120 -26.27689 36996 ft 537 kts 129°
2026-04-25 18:49 19.03700 -26.21370 36997 ft 537 kts 129°
2026-04-25 18:50 18.99246 -26.15005 36993 ft 536 kts 129°
2026-04-25 18:50 18.94814 -26.08679 36992 ft 536 kts 129°
2026-04-25 18:51 18.91867 -26.04466 36990 ft 536 kts 129°
2026-04-25 18:51 18.86002 -25.96023 36988 ft 536 kts 129°
2026-04-25 18:52 18.81611 -25.89688 36989 ft 535 kts 129°
2026-04-25 18:52 18.77199 -25.83331 36988 ft 534 kts 129°
2026-04-25 18:53 18.72826 -25.77036 36987 ft 534 kts 129°
2026-04-25 18:53 18.68436 -25.70723 36989 ft 534 kts 129°
2026-04-25 18:54 18.61825 -25.61228 36989 ft 533 kts 129°
2026-04-25 18:55 18.57445 -25.54946 36990 ft 532 kts 129°
2026-04-25 18:55 18.53074 -25.48681 36990 ft 532 kts 129°
2026-04-25 18:56 18.48666 -25.42370 36991 ft 532 kts 129°
2026-04-25 18:56 18.44289 -25.36113 36989 ft 531 kts 129°
2026-04-25 18:57 18.39893 -25.29830 36989 ft 531 kts 129°
2026-04-25 18:57 18.35526 -25.23598 36991 ft 530 kts 129°
2026-04-25 18:58 18.31159 -25.17368 36989 ft 529 kts 129°
2026-04-25 18:58 18.24592 -25.08016 36988 ft 528 kts 129°
2026-04-25 18:59 18.15896 -24.95652 36988 ft 528 kts 129°
2026-04-25 19:00 18.09335 -24.86337 36986 ft 527 kts 129°
2026-04-25 19:01 18.02805 -24.77079 36984 ft 526 kts 129°
2026-04-25 19:01 17.98432 -24.70886 36979 ft 526 kts 129°
2026-04-25 19:02 17.91901 -24.61649 36976 ft 527 kts 129°
2026-04-25 19:03 17.86791 -24.54427 36975 ft 527 kts 129°
2026-04-25 19:03 17.81001 -24.46251 36981 ft 527 kts 129°
2026-04-25 19:04 17.74458 -24.37015 36981 ft 526 kts 129°
2026-04-25 19:05 17.65636 -24.24686 36976 ft 526 kts 130°
2026-04-25 19:06 17.61200 -24.18548 36969 ft 525 kts 130°
2026-04-25 19:06 17.54554 -24.09334 36970 ft 526 kts 129°
2026-04-25 19:07 17.47948 -24.00178 36966 ft 525 kts 130°
2026-04-25 19:08 17.41368 -23.91070 36967 ft 525 kts 130°
2026-04-25 19:09 17.33994 -23.80876 36961 ft 525 kts 130°
2026-04-25 19:10 17.25898 -23.69705 36954 ft 525 kts 129°
2026-04-25 19:10 17.21465 -23.63593 36955 ft 525 kts 130°
2026-04-25 19:11 17.17055 -23.57520 36953 ft 525 kts 130°
2026-04-25 19:11 17.12651 -23.51459 36949 ft 524 kts 129°
2026-04-25 19:12 17.08220 -23.45367 36949 ft 524 kts 130°
2026-04-25 19:12 17.03824 -23.39328 36947 ft 524 kts 129°
2026-04-25 19:13 16.99380 -23.33231 36944 ft 524 kts 130°
2026-04-25 19:13 16.94960 -23.27167 36950 ft 524 kts 130°
2026-04-25 19:14 16.90524 -23.21086 36951 ft 523 kts 130°
2026-04-25 19:14 16.86134 -23.15070 36948 ft 523 kts 130°
2026-04-25 19:15 16.81707 -23.09009 36946 ft 523 kts 130°
2026-04-25 19:15 16.77318 -23.03000 36947 ft 523 kts 130°
2026-04-25 19:16 16.73117 -22.96924 36940 ft 525 kts 123°
2026-04-25 19:16 16.69971 -22.90041 36945 ft 528 kts 111°
2026-04-25 19:17 16.67493 -22.82860 36944 ft 529 kts 110°
2026-04-25 19:17 16.65045 -22.75650 36944 ft 528 kts 109°
2026-04-25 19:18 16.63238 -22.68243 36944 ft 529 kts 102°
2026-04-25 19:18 16.61569 -22.60809 36945 ft 528 kts 107°
2026-04-25 19:19 16.59164 -22.53554 36945 ft 527 kts 111°
2026-04-25 19:19 16.56641 -22.46415 36947 ft 527 kts 111°
2026-04-25 19:20 16.54117 -22.39262 36948 ft 528 kts 111°
2026-04-25 19:20 16.51582 -22.32050 36944 ft 527 kts 111°
2026-04-25 19:21 16.49072 -22.24902 36941 ft 528 kts 111°
2026-04-25 19:21 16.45307 -22.14197 36932 ft 527 kts 111°
2026-04-25 19:22 16.42771 -22.07004 36929 ft 527 kts 111°
2026-04-25 19:23 16.38987 -21.96280 36927 ft 527 kts 111°
2026-04-25 19:23 16.35209 -21.85583 36927 ft 527 kts 111°
2026-04-25 19:24 16.32675 -21.78412 36927 ft 527 kts 111°
2026-04-25 19:25 16.27612 -21.64144 36927 ft 526 kts 111°
2026-04-25 19:25 16.25041 -21.57019 36926 ft 526 kts 111°
2026-04-25 19:26 16.22479 -21.49915 36927 ft 526 kts 111°
2026-04-25 19:26 16.19918 -21.42800 36928 ft 526 kts 111°
2026-04-25 19:27 16.18218 -21.38075 36928 ft 526 kts 111°
2026-04-25 19:27 16.14802 -21.28591 36926 ft 526 kts 111°
2026-04-25 19:28 16.12237 -21.21484 36927 ft 526 kts 111°
2026-04-25 19:28 16.09673 -21.14385 36926 ft 526 kts 112°
2026-04-25 19:29 16.07092 -21.07248 36926 ft 526 kts 111°
2026-04-25 19:29 16.04519 -21.00145 36926 ft 526 kts 111°
2026-04-25 19:30 16.01950 -20.93055 36926 ft 526 kts 112°
2026-04-25 19:30 15.99382 -20.85981 36922 ft 524 kts 111°
2026-04-25 19:31 15.96803 -20.78880 36915 ft 525 kts 111°
2026-04-25 19:31 15.94239 -20.71832 36909 ft 524 kts 111°
2026-04-25 19:32 15.91671 -20.64778 36905 ft 524 kts 111°
2026-04-25 19:32 15.89938 -20.60025 36905 ft 524 kts 111°
2026-04-25 19:33 15.86509 -20.50621 36904 ft 525 kts 111°
2026-04-25 19:33 15.83940 -20.43586 36904 ft 525 kts 111°
2026-04-25 19:34 15.81352 -20.36510 36905 ft 525 kts 111°
2026-04-25 19:34 15.78768 -20.29449 36904 ft 524 kts 112°
2026-04-25 19:35 15.76168 -20.22356 36905 ft 523 kts 111°
2026-04-25 19:35 15.73584 -20.15305 36906 ft 523 kts 111°
2026-04-25 19:36 15.71013 -20.08292 36906 ft 523 kts 111°
2026-04-25 19:36 15.68432 -20.01262 36905 ft 523 kts 111°
2026-04-25 19:37 15.65867 -19.94185 36905 ft 523 kts 111°
2026-04-25 19:37 15.63349 -19.87125 36903 ft 523 kts 111°
2026-04-25 19:38 15.60835 -19.80075 36899 ft 523 kts 111°
2026-04-25 19:38 15.58316 -19.73026 36900 ft 522 kts 111°
2026-04-25 19:39 15.55794 -19.65974 36898 ft 522 kts 111°
2026-04-25 19:39 15.54535 -19.62459 36685 ft 523 kts 111°
2026-04-25 19:39 15.53263 -19.58908 36163 ft 522 kts 110°
2026-04-25 19:40 15.51999 -19.55382 35438 ft 522 kts 110°
2026-04-25 19:40 15.50747 -19.51883 34660 ft 523 kts 110°
2026-04-25 19:40 15.49483 -19.48354 33802 ft 525 kts 110°
2026-04-25 19:40 15.48210 -19.44809 32965 ft 527 kts 110°
2026-04-25 19:41 15.46889 -19.41255 32334 ft 526 kts 112°
2026-04-25 19:41 15.45390 -19.37824 31873 ft 521 kts 115°
2026-04-25 19:41 15.43803 -19.34507 31513 ft 515 kts 116°
2026-04-25 19:41 15.43264 -19.33395 31393 ft 513 kts 116°
2026-04-25 19:42 15.40628 -19.27976 30782 ft 503 kts 116°
2026-04-25 19:42 15.39053 -19.24733 30403 ft 498 kts 116°
2026-04-25 19:42 15.37501 -19.21531 30025 ft 493 kts 116°
2026-04-25 19:42 15.35990 -19.18409 29659 ft 488 kts 116°
2026-04-25 19:43 15.34470 -19.15265 29294 ft 483 kts 116°
2026-04-25 19:43 15.32976 -19.12173 28917 ft 479 kts 116°
2026-04-25 19:43 15.31499 -19.09116 28559 ft 474 kts 115°
2026-04-25 19:43 15.30039 -19.06096 28214 ft 470 kts 115°
2026-04-25 19:44 15.28567 -19.03050 27879 ft 465 kts 115°
2026-04-25 19:44 15.27143 -19.00104 27551 ft 461 kts 115°
2026-04-25 19:44 15.25714 -18.97152 27223 ft 456 kts 115°
2026-04-25 19:44 15.24297 -18.94224 26908 ft 452 kts 116°
2026-04-25 19:45 15.22893 -18.91326 26574 ft 448 kts 116°
2026-04-25 19:45 15.21506 -18.88463 26256 ft 443 kts 116°
2026-04-25 19:45 15.20129 -18.85622 25929 ft 439 kts 116°
2026-04-25 19:45 15.18774 -18.82827 25607 ft 435 kts 116°
2026-04-25 19:46 15.17414 -18.80023 25282 ft 431 kts 116°
2026-04-25 19:46 15.16076 -18.77267 24948 ft 428 kts 116°
2026-04-25 19:46 15.14755 -18.74545 24624 ft 424 kts 116°
2026-04-25 19:46 15.13431 -18.71820 24295 ft 421 kts 116°
2026-04-25 19:47 15.12119 -18.69121 23970 ft 417 kts 116°
2026-04-25 19:47 15.10836 -18.66482 23671 ft 414 kts 116°
2026-04-25 19:47 15.09539 -18.63816 23367 ft 410 kts 116°
2026-04-25 19:47 15.08263 -18.61195 23052 ft 407 kts 116°
2026-04-25 19:48 15.07005 -18.58610 22741 ft 404 kts 116°
2026-04-25 19:48 15.05747 -18.56024 22427 ft 401 kts 116°
2026-04-25 19:48 15.04496 -18.53455 22105 ft 398 kts 116°
2026-04-25 19:48 15.03258 -18.50911 21772 ft 396 kts 116°
2026-04-25 19:49 15.02029 -18.48386 21418 ft 394 kts 116°
2026-04-25 19:49 15.01602 -18.47509 21290 ft 394 kts 116°
2026-04-25 19:49 14.99560 -18.43321 20693 ft 392 kts 117°
2026-04-25 19:49 14.98331 -18.40801 20322 ft 391 kts 117°
2026-04-25 19:50 14.95882 -18.35784 19597 ft 389 kts 117°
2026-04-25 19:50 14.94673 -18.33310 19245 ft 388 kts 117°
2026-04-25 19:50 14.93453 -18.30813 18892 ft 386 kts 117°
2026-04-25 19:51 14.92244 -18.28336 18540 ft 385 kts 117°
2026-04-25 19:51 14.91055 -18.25902 18187 ft 384 kts 117°
2026-04-25 19:51 14.89855 -18.23447 17834 ft 382 kts 117°
2026-04-25 19:51 14.88656 -18.20997 17485 ft 381 kts 117°
2026-04-25 19:52 14.87460 -18.18551 17138 ft 380 kts 118°
2026-04-25 19:52 14.86264 -18.16110 16795 ft 378 kts 118°
2026-04-25 19:52 14.85088 -18.13710 16473 ft 376 kts 118°
2026-04-25 19:52 14.83909 -18.11303 16148 ft 374 kts 118°
2026-04-25 19:53 14.82741 -18.08921 15829 ft 371 kts 118°
2026-04-25 19:53 14.81583 -18.06556 15503 ft 369 kts 118°
2026-04-25 19:53 14.80417 -18.04177 15168 ft 367 kts 118°
2026-04-25 19:53 14.79270 -18.01837 14856 ft 364 kts 118°
2026-04-25 19:54 14.78132 -17.99517 14538 ft 362 kts 118°
2026-04-25 19:54 14.76996 -17.97203 14229 ft 359 kts 118°
2026-04-25 19:54 14.75880 -17.94930 13923 ft 356 kts 118°
2026-04-25 19:54 14.75504 -17.94165 13821 ft 355 kts 118°
2026-04-25 19:55 14.73652 -17.90391 13300 ft 351 kts 118°
2026-04-25 19:55 14.72561 -17.88171 12979 ft 349 kts 118°
2026-04-25 19:55 14.71467 -17.85945 12649 ft 347 kts 118°
2026-04-25 19:55 14.70370 -17.83715 12325 ft 344 kts 118°
2026-04-25 19:56 14.69301 -17.81538 12007 ft 342 kts 118°
2026-04-25 19:56 14.68216 -17.79332 11687 ft 340 kts 118°
2026-04-25 19:56 14.67156 -17.77182 11385 ft 337 kts 118°
2026-04-25 19:56 14.66089 -17.75011 11066 ft 335 kts 118°
2026-04-25 19:57 14.65043 -17.72891 10753 ft 333 kts 118°
2026-04-25 19:57 14.63998 -17.70765 10445 ft 330 kts 118°
2026-04-25 19:57 14.62968 -17.68674 10217 ft 325 kts 118°
2026-04-25 19:57 14.61948 -17.66604 10018 ft 319 kts 117°
2026-04-25 19:58 14.60963 -17.64601 9947 ft 309 kts 118°
2026-04-25 19:58 14.60009 -17.62665 9906 ft 298 kts 118°
2026-04-25 19:58 14.59085 -17.60782 9859 ft 288 kts 118°
2026-04-25 19:58 14.58174 -17.58936 9847 ft 294 kts 118°
2026-04-25 19:59 14.57239 -17.57041 9843 ft 297 kts 118°
2026-04-25 19:59 14.56292 -17.55125 9848 ft 298 kts 118°
2026-04-25 19:59 14.55359 -17.53233 9844 ft 298 kts 118°
2026-04-25 19:59 14.54419 -17.51329 9842 ft 298 kts 118°
2026-04-25 20:00 14.53472 -17.49413 9850 ft 298 kts 118°
2026-04-25 20:00 14.53158 -17.48776 9854 ft 297 kts 118°
2026-04-25 20:00 14.51591 -17.45619 9845 ft 296 kts 120°
2026-04-25 20:00 14.50400 -17.43909 9840 ft 294 kts 131°
2026-04-25 20:01 14.47594 -17.40823 9848 ft 293 kts 143°
2026-04-25 20:01 14.45854 -17.39703 9845 ft 293 kts 152°
2026-04-25 20:01 14.44063 -17.38732 9845 ft 293 kts 154°
2026-04-25 20:02 14.42236 -17.37773 9849 ft 293 kts 154°
2026-04-25 20:02 14.40413 -17.36822 9843 ft 294 kts 154°
2026-04-25 20:02 14.38567 -17.35862 9847 ft 294 kts 154°
2026-04-25 20:02 14.36757 -17.34917 9852 ft 294 kts 154°
2026-04-25 20:03 14.34923 -17.33957 9850 ft 294 kts 154°
2026-04-25 20:03 14.33080 -17.33000 9847 ft 295 kts 154°
2026-04-25 20:03 14.31235 -17.32041 9843 ft 294 kts 154°
2026-04-25 20:03 14.29395 -17.31084 9841 ft 294 kts 154°
2026-04-25 20:04 14.27574 -17.30139 9841 ft 294 kts 154°
2026-04-25 20:04 14.25742 -17.29192 9843 ft 293 kts 154°
2026-04-25 20:04 14.23904 -17.28250 9844 ft 293 kts 154°
2026-04-25 20:04 14.22060 -17.27312 9840 ft 293 kts 154°
2026-04-25 20:05 14.20241 -17.26388 9836 ft 293 kts 154°
2026-04-25 20:05 14.18402 -17.25452 9837 ft 293 kts 154°
2026-04-25 20:05 14.16573 -17.24519 9821 ft 291 kts 154°
2026-04-25 20:05 14.14747 -17.23587 9608 ft 289 kts 154°
2026-04-25 20:06 14.12945 -17.22666 9269 ft 290 kts 152°
2026-04-25 20:06 14.11333 -17.21388 8943 ft 291 kts 128°
2026-04-25 20:06 14.10459 -17.19545 8763 ft 286 kts 103°
2026-04-25 20:06 14.10157 -17.17512 8441 ft 287 kts 95°
2026-04-25 20:07 14.09978 -17.15459 8085 ft 290 kts 94°
2026-04-25 20:07 14.09817 -17.13394 7729 ft 292 kts 94°
2026-04-25 20:07 14.09654 -17.11292 7350 ft 291 kts 94°
2026-04-25 20:07 14.09693 -17.09248 7011 ft 285 kts 72°
2026-04-25 20:08 14.10677 -17.07539 6783 ft 278 kts 41°
2026-04-25 20:08 14.12321 -17.06512 6590 ft 273 kts 18°
2026-04-25 20:08 14.14170 -17.06216 6325 ft 269 kts 358°
2026-04-25 20:08 14.16032 -17.06307 6042 ft 264 kts 357°
2026-04-25 20:09 14.17847 -17.06401 5740 ft 261 kts 358°
2026-04-25 20:09 14.19668 -17.06480 5390 ft 260 kts 358°
2026-04-25 20:09 14.21478 -17.06545 5049 ft 259 kts 359°
2026-04-25 20:09 14.23291 -17.06601 4810 ft 257 kts 359°
2026-04-25 20:10 14.24466 -17.06634 4661 ft 256 kts 359°
2026-04-25 20:10 14.26847 -17.06700 4376 ft 254 kts 359°
2026-04-25 20:10 14.28627 -17.06747 4149 ft 252 kts 359°
2026-04-25 20:10 14.30361 -17.06792 3994 ft 248 kts 359°
2026-04-25 20:11 14.32093 -17.06837 3984 ft 250 kts 359°
2026-04-25 20:11 14.33864 -17.06882 3980 ft 251 kts 359°
2026-04-25 20:11 14.35606 -17.06927 3979 ft 251 kts 359°
2026-04-25 20:11 14.37357 -17.06971 3977 ft 251 kts 359°
2026-04-25 20:12 14.39102 -17.07002 3976 ft 251 kts
2026-04-25 20:12 14.40878 -17.07017 3977 ft 250 kts
2026-04-25 20:12 14.42624 -17.07037 3976 ft 251 kts 360°
2026-04-25 20:12 14.43211 -17.07044 3976 ft 250 kts 360°
2026-04-25 20:13 14.46122 -17.07077 3902 ft 250 kts
2026-04-25 20:13 14.47873 -17.07094 3640 ft 252 kts 360°
2026-04-25 20:13 14.49625 -17.07112 3275 ft 251 kts
2026-04-25 20:13 14.51363 -17.07129 2957 ft 245 kts
2026-04-25 20:14 14.53065 -17.07146 2649 ft 239 kts
2026-04-25 20:14 14.54721 -17.07161 2342 ft 230 kts
2026-04-25 20:14 14.56242 -17.07176 2049 ft 211 kts 360°
2026-04-25 20:14 14.57669 -17.07190 1787 ft 195 kts 360°
2026-04-25 20:15 14.58969 -17.07203 1554 ft 180 kts 360°
2026-04-25 20:15 14.60186 -17.07214 1349 ft 168 kts 359°
2026-04-25 20:15 14.61325 -17.07225 1116 ft 159 kts 359°
2026-04-25 20:15 14.62404 -17.07236 908 ft 150 kts 360°
2026-04-25 20:16 14.63430 -17.07243 718 ft 143 kts 359°
2026-04-25 20:16 14.64403 -17.07257 547 ft 135 kts 358°
2026-04-25 20:16 14.65345 -17.07267 363 ft 133 kts 359°
2026-04-25 20:16 14.66241 -17.07261 307 ft 115 kts 352°
2026-04-25 20:17 14.66868 -17.07281 312 ft 68 kts 359°
2026-04-25 20:17 14.67061 -17.07248 314 ft 16 kts 51°
2026-04-25 20:17 14.67075 -17.07184 311 ft 3 kts 89°
2026-04-25 20:17 14.67076 -17.07153 309 ft 2 kts 89°
2026-04-25 20:18 14.67076 -17.07150 309 ft 0 kts 89°
2026-04-25 20:18 14.67076 -17.07129 308 ft 5 kts 88°
2026-04-25 20:18 14.67078 -17.07074 307 ft 9 kts 89°
2026-04-25 20:19 14.67073 -17.07009 306 ft 7 kts 116°
2026-04-25 20:19 14.67032 -17.06981 307 ft 7 kts 163°
2026-04-25 20:19 14.66976 -17.06976 308 ft 7 kts 178°
2026-04-25 20:19 14.66923 -17.06975 309 ft 7 kts 179°
2026-04-25 20:20 14.66874 -17.06974 310 ft 2 kts 175°
2026-04-25 20:20 14.66862 -17.06962 310 ft 4 kts 109°
2026-04-25 20:20 14.66865 -17.06921 310 ft 6 kts 84°
2026-04-25 20:20 14.66868 -17.06874 310 ft 2 kts 89°
2026-04-25 20:21 14.66868 -17.06873 310 ft 0 kts 89°